Time,TemperatureF,DewpointF,PressureIn,WindDirection,WindDirectionDegrees,WindSpeedMPH,WindSpeedGustMPH,Humidity,HourlyPrecipIn,Conditions,Clouds,dailyrainin,SoftwareType,DateUTC
2013-08-02 00:00:00,63.0,-99.9,-100.00,West,271,12.0,18.0,-999,-99.99,,,-99.99,,2013-08-02 07:00:00,
2013-08-02 00:12:00,64.0,-99.9,-100.00,West,262,6.0,19.0,-999,-99.99,,,-99.99,,2013-08-02 07:12:00,
2013-08-02 00:23:00,64.0,-99.9,-100.00,West,262,6.0,19.0,-999,-99.99,,,-99.99,,2013-08-02 07:23:00,
2013-08-02 00:44:00,63.0,-99.9,-100.00,West,271,12.0,18.0,-999,-99.99,,,-99.99,,2013-08-02 07:44:00,
2013-08-02 00:53:00,63.0,-99.9,-100.00,West,271,12.0,18.0,-999,-99.99,,,-99.99,,2013-08-02 07:53:00,
2013-08-02 01:00:00,63.0,-99.9,-100.00,WSW,247,9.0,20.0,-999,-99.99,,,-99.99,,2013-08-02 08:00:00,
2013-08-02 01:44:00,63.0,-99.9,-100.00,WSW,247,9.0,20.0,-999,-99.99,,,-99.99,,2013-08-02 08:44:00,
2013-08-02 01:54:00,63.0,-99.9,-100.00,WSW,247,9.0,20.0,-999,-99.99,,,-99.99,,2013-08-02 08:54:00,
2013-08-02 02:00:00,65.0,-99.9,-100.00,West,261,10.0,15.0,-999,-99.99,,,-99.99,,2013-08-02 09:00:00,
2013-08-02 02:44:00,65.0,-99.9,-100.00,West,261,10.0,15.0,-999,-99.99,,,-99.99,,2013-08-02 09:44:00,
2013-08-02 02:53:00,65.0,-99.9,-100.00,West,261,10.0,15.0,-999,-99.99,,,-99.99,,2013-08-02 09:53:00,
2013-08-02 03:44:00,61.0,-99.9,-100.00,WSW,253,8.0,20.0,-999,-99.99,,,-99.99,,2013-08-02 10:44:00,
2013-08-02 03:52:00,61.0,-99.9,-100.00,WSW,253,8.0,20.0,-999,-99.99,,,-99.99,,2013-08-02 10:52:00,
2013-08-02 04:02:00,63.0,-99.9,-100.00,WNW,285,10.0,20.0,-999,-99.99,,,-99.99,,2013-08-02 11:02:00,
2013-08-02 04:12:00,63.0,-99.9,-100.00,WNW,285,10.0,20.0,-999,-99.99,,,-99.99,,2013-08-02 11:12:00,
2013-08-02 04:23:00,63.0,-99.9,-100.00,WNW,285,10.0,20.0,-999,-99.99,,,-99.99,,2013-08-02 11:23:00,
2013-08-02 04:33:00,62.0,-99.9,-100.00,WSW,250,8.0,15.0,-999,-99.99,,,-99.99,,2013-08-02 11:33:00,
2013-08-02 04:43:00,62.0,-99.9,-100.00,WSW,250,8.0,15.0,-999,-99.99,,,-99.99,,2013-08-02 11:43:00,
2013-08-02 04:52:00,62.0,-99.9,-100.00,WSW,250,8.0,15.0,-999,-99.99,,,-99.99,,2013-08-02 11:52:00,
2013-08-02 05:12:00,61.0,-99.9,-100.00,WSW,246,6.0,20.0,-999,-99.99,,,-99.99,,2013-08-02 12:12:00,
2013-08-02 05:20:00,62.0,-99.9,-100.00,WNW,283,8.0,16.0,-999,-99.99,,,-99.99,,2013-08-02 12:20:00,
2013-08-02 05:22:00,61.0,-99.9,-100.00,WSW,246,6.0,20.0,-999,-99.99,,,-99.99,,2013-08-02 12:22:00,
2013-08-02 05:43:00,63.0,-99.9,-100.00,WSW,244,4.0,17.0,-999,-99.99,,,-99.99,,2013-08-02 12:43:00,
2013-08-02 05:52:00,63.0,-99.9,-100.00,WSW,244,4.0,17.0,-999,-99.99,,,-99.99,,2013-08-02 12:52:00,
2013-08-02 06:00:00,62.0,-99.9,-100.00,WNW,283,9.0,15.0,-999,-99.99,,,-99.99,,2013-08-02 13:00:00,
2013-08-02 06:03:00,62.0,-99.9,-100.00,WNW,283,8.0,16.0,-999,-99.99,,,-99.99,,2013-08-02 13:03:00,
2013-08-02 06:12:00,62.0,-99.9,-100.00,WNW,283,8.0,16.0,-999,-99.99,,,-99.99,,2013-08-02 13:12:00,
2013-08-02 06:53:00,62.0,-99.9,-100.00,WNW,283,9.0,15.0,-999,-99.99,,,-99.99,,2013-08-02 13:53:00,
2013-08-02 07:00:00,63.0,-99.9,-100.00,West,270,9.0,17.0,-999,-99.99,,,-99.99,,2013-08-02 14:00:00,
2013-08-02 07:43:00,63.0,-99.9,-100.00,West,270,9.0,17.0,-999,-99.99,,,-99.99,,2013-08-02 14:43:00,
2013-08-02 07:53:00,63.0,-99.9,-100.00,West,270,9.0,17.0,-999,-99.99,,,-99.99,,2013-08-02 14:53:00,
2013-08-02 08:00:00,62.0,-99.9,-100.00,WSW,242,8.0,12.0,-999,-99.99,,,-99.99,,2013-08-02 15:00:00,
2013-08-02 08:43:00,62.0,-99.9,-100.00,WSW,242,8.0,12.0,-999,-99.99,,,-99.99,,2013-08-02 15:43:00,
2013-08-02 08:53:00,62.0,-99.9,-100.00,WSW,242,8.0,12.0,-999,-99.99,,,-99.99,,2013-08-02 15:53:00,
2013-08-02 09:43:00,65.0,-99.9,-100.00,West,273,20.0,20.0,-999,-99.99,,,-99.99,,2013-08-02 16:43:00,
2013-08-02 09:53:00,65.0,-99.9,-100.00,West,273,20.0,20.0,-999,-99.99,,,-99.99,,2013-08-02 16:53:00,
2013-08-02 10:00:00,65.0,-99.9,-100.00,West,263,9.0,24.0,-999,-99.99,,,-99.99,,2013-08-02 17:00:00,
2013-08-02 10:12:00,64.0,-99.9,-100.00,WNW,289,15.0,20.0,-999,-99.99,,,-99.99,,2013-08-02 17:12:00,
2013-08-02 10:22:00,64.0,-99.9,-100.00,WNW,289,15.0,20.0,-999,-99.99,,,-99.99,,2013-08-02 17:22:00,
2013-08-02 10:43:00,65.0,-99.9,-100.00,West,263,9.0,24.0,-999,-99.99,,,-99.99,,2013-08-02 17:43:00,
2013-08-02 10:52:00,65.0,-99.9,-100.00,West,263,9.0,24.0,-999,-99.99,,,-99.99,,2013-08-02 17:52:00,
2013-08-02 11:00:00,69.0,-99.9,-100.00,WNW,298,18.0,20.0,-999,-99.99,,,-99.99,,2013-08-02 18:00:00,
2013-08-02 11:40:00,67.0,-99.9,-100.00,WNW,283,22.0,22.0,-999,-99.99,,,-99.99,,2013-08-02 18:40:00,
2013-08-02 11:43:00,69.0,-99.9,-100.00,WNW,298,18.0,20.0,-999,-99.99,,,-99.99,,2013-08-02 18:43:00,
2013-08-02 11:52:00,69.0,-99.9,-100.00,WNW,298,18.0,20.0,-999,-99.99,,,-99.99,,2013-08-02 18:52:00,
2013-08-02 12:10:00,68.0,-99.9,-100.00,West,272,16.0,19.0,-999,-99.99,,,-99.99,,2013-08-02 19:10:00,
2013-08-02 12:22:00,67.0,-99.9,-100.00,WNW,283,22.0,22.0,-999,-99.99,,,-99.99,,2013-08-02 19:22:00,
2013-08-02 12:33:00,67.0,-99.9,-100.00,WNW,283,22.0,22.0,-999,-99.99,,,-99.99,,2013-08-02 19:33:00,
2013-08-02 12:52:00,68.0,-99.9,-100.00,West,272,16.0,19.0,-999,-99.99,,,-99.99,,2013-08-02 19:52:00,
2013-08-02 13:02:00,68.0,-99.9,-100.00,West,272,16.0,19.0,-999,-99.99,,,-99.99,,2013-08-02 20:02:00,
2013-08-02 13:43:00,68.0,-99.9,-100.00,WNW,283,6.0,21.0,-999,-99.99,,,-99.99,,2013-08-02 20:43:00,
2013-08-02 13:52:00,68.0,-99.9,-100.00,WNW,283,6.0,21.0,-999,-99.99,,,-99.99,,2013-08-02 20:52:00,
2013-08-02 14:10:00,67.0,-99.9,-100.00,NW,308,9.0,21.0,-999,-99.99,,,-99.99,,2013-08-02 21:10:00,
2013-08-02 14:43:00,66.0,-99.9,-100.00,West,272,13.0,24.0,-999,-99.99,,,-99.99,,2013-08-02 21:43:00,
2013-08-02 14:53:00,67.0,-99.9,-100.00,NW,308,9.0,21.0,-999,-99.99,,,-99.99,,2013-08-02 21:53:00,
2013-08-02 15:00:00,69.0,-99.9,-100.00,WNW,292,7.0,13.0,-999,-99.99,,,-99.99,,2013-08-02 22:00:00,
2013-08-02 15:03:00,67.0,-99.9,-100.00,NW,308,9.0,21.0,-999,-99.99,,,-99.99,,2013-08-02 22:03:00,
2013-08-02 15:22:00,67.0,-99.9,-100.00,West,271,10.0,15.0,-999,-99.99,,,-99.99,,2013-08-02 22:22:00,
2013-08-02 15:33:00,67.0,-99.9,-100.00,West,271,10.0,15.0,-999,-99.99,,,-99.99,,2013-08-02 22:33:00,
2013-08-02 15:43:00,69.0,-99.9,-100.00,WNW,292,7.0,13.0,-999,-99.99,,,-99.99,,2013-08-02 22:43:00,
2013-08-02 15:52:00,69.0,-99.9,-100.00,WNW,292,7.0,13.0,-999,-99.99,,,-99.99,,2013-08-02 22:52:00,
2013-08-02 16:00:00,70.0,-99.9,-100.00,West,265,15.0,19.0,-999,-99.99,,,-99.99,,2013-08-02 23:00:00,
2013-08-02 16:44:00,70.0,-99.9,-100.00,West,265,15.0,19.0,-999,-99.99,,,-99.99,,2013-08-02 23:44:00,
2013-08-02 16:53:00,70.0,-99.9,-100.00,West,265,15.0,19.0,-999,-99.99,,,-99.99,,2013-08-02 23:53:00,
2013-08-02 17:00:00,69.0,-99.9,-100.00,WSW,253,7.0,17.0,-999,-99.99,,,-99.99,,2013-08-03 00:00:00,
2013-08-02 17:20:00,69.0,-99.9,-100.00,NW,308,6.0,18.0,-999,-99.99,,,-99.99,,2013-08-03 00:20:00,
2013-08-02 17:43:00,69.0,-99.9,-100.00,WSW,253,7.0,17.0,-999,-99.99,,,-99.99,,2013-08-03 00:43:00,
2013-08-02 17:52:00,69.0,-99.9,-100.00,WSW,253,7.0,17.0,-999,-99.99,,,-99.99,,2013-08-03 00:52:00,
2013-08-02 18:00:00,69.0,-99.9,-100.00,West,263,14.0,18.0,-999,-99.99,,,-99.99,,2013-08-03 01:00:00,
2013-08-02 18:12:00,69.0,-99.9,-100.00,NW,308,6.0,18.0,-999,-99.99,,,-99.99,,2013-08-03 01:12:00,
2013-08-02 18:42:00,69.0,-99.9,-100.00,West,263,14.0,18.0,-999,-99.99,,,-99.99,,2013-08-03 01:42:00,
2013-08-02 18:53:00,69.0,-99.9,-100.00,West,263,14.0,18.0,-999,-99.99,,,-99.99,,2013-08-03 01:53:00,
2013-08-02 19:00:00,70.0,-99.9,-100.00,NW,315,12.0,14.0,-999,-99.99,,,-99.99,,2013-08-03 02:00:00,
2013-08-02 19:43:00,70.0,-99.9,-100.00,NW,315,12.0,14.0,-999,-99.99,,,-99.99,,2013-08-03 02:43:00,
2013-08-02 19:53:00,70.0,-99.9,-100.00,NW,315,12.0,14.0,-999,-99.99,,,-99.99,,2013-08-03 02:53:00,
2013-08-02 20:12:00,69.0,-99.9,-100.00,WSW,239,9.0,15.0,-999,-99.99,,,-99.99,,2013-08-03 03:12:00,
2013-08-02 20:22:00,68.0,-99.9,-100.00,West,269,11.0,13.0,-999,-99.99,,,-99.99,,2013-08-03 03:22:00,
2013-08-02 20:32:00,68.0,-99.9,-100.00,West,269,11.0,13.0,-999,-99.99,,,-99.99,,2013-08-03 03:32:00,
2013-08-02 20:43:00,68.0,-99.9,-100.00,West,264,7.0,16.0,-999,-99.99,,,-99.99,,2013-08-03 03:43:00,
2013-08-02 20:53:00,67.0,-99.9,-100.00,WSW,250,7.0,12.0,-999,-99.99,,,-99.99,,2013-08-03 03:53:00,
2013-08-02 21:02:00,67.0,-99.9,-100.00,WSW,250,7.0,12.0,-999,-99.99,,,-99.99,,2013-08-03 04:02:00,
2013-08-02 21:10:00,65.0,-99.9,-100.00,West,266,7.0,13.0,-999,-99.99,,,-99.99,,2013-08-03 04:10:00,
2013-08-02 21:43:00,65.0,-99.9,-100.00,West,281,10.0,10.0,-999,-99.99,,,-99.99,,2013-08-03 04:43:00,
2013-08-02 21:53:00,65.0,-99.9,-100.00,West,266,7.0,13.0,-999,-99.99,,,-99.99,,2013-08-03 04:53:00,
2013-08-02 22:02:00,65.0,-99.9,-100.00,West,266,7.0,13.0,-999,-99.99,,,-99.99,,2013-08-03 05:02:00,
2013-08-02 22:10:00,68.0,-99.9,-100.00,West,265,2.0,15.0,-999,-99.99,,,-99.99,,2013-08-03 05:10:00,
2013-08-02 22:22:00,69.0,-99.9,-100.00,WNW,287,5.0,12.0,-999,-99.99,,,-99.99,,2013-08-03 05:22:00,
2013-08-02 22:32:00,69.0,-99.9,-100.00,WNW,287,5.0,12.0,-999,-99.99,,,-99.99,,2013-08-03 05:32:00,
2013-08-02 22:43:00,67.0,-99.9,-100.00,WNW,298,14.0,18.0,-999,-99.99,,,-99.99,,2013-08-03 05:43:00,
2013-08-02 22:53:00,68.0,-99.9,-100.00,West,265,2.0,15.0,-999,-99.99,,,-99.99,,2013-08-03 05:53:00,
2013-08-02 23:00:00,66.0,-99.9,-100.00,WNW,286,7.0,16.0,-999,-99.99,,,-99.99,,2013-08-03 06:00:00,
2013-08-02 23:02:00,68.0,-99.9,-100.00,West,265,2.0,15.0,-999,-99.99,,,-99.99,,2013-08-03 06:02:00,
2013-08-02 23:42:00,66.0,-99.9,-100.00,WNW,286,7.0,16.0,-999,-99.99,,,-99.99,,2013-08-03 06:42:00,
2013-08-02 23:52:00,66.0,-99.9,-100.00,WNW,286,7.0,16.0,-999,-99.99,,,-99.99,,2013-08-03 06:52:00,